User: anonymous   Login
Location: Unspecified
(0.0000°N, 0.0000°E)
Time: 04:31:05
(UTC+00:00)
Language:

STARLINK-3978 - Orbit

View from above orbital plane
View from above orbital plane
View from above satellite
View from above satellite

Ground track
Ground track

The orbit is defined by the following mean orbital elements,

1 52635U          26145.38572794 +.00000000 +00000-0 -33990-4 0 00006
2 52635  53.2140 274.8156 0001307  96.8175 263.2966 15.08842571    03
Epoch (UTC): 25 May 2026 09:15:26
Eccentricity: 0.0001307
inclination: 53.2140°
perigee height: 539 km
apogee height: 541 km
right ascension of ascending node: 274.8156°
argument of perigee: 96.8175°
revolutions per day: 15.08842571
mean anomaly at epoch: 263.2966°

The dashed part of the orbit path shows where the satellite is in the earth's shadow,  

DLR